Flag for Canada Weather past 2 weeks in Kamloops, British Columbia, Canada

Now
84 °F

Scattered clouds.


Feels Like: 82 °F
Forecast: 59 / 86 °F
Wind: 9 mph from Southeast

Location: Kamloops

Current Time: Jul 29, 2015 at 3:21:12 PM

Latest Report: Jul 29, 2015 at 2:00 PM


Visibility: 40 mi

Pressure: 30.09 "Hg

Humidity: 22%

Dew point: 41 °F

Location of KamloopsLocation

Historic Weather in Kamloops — Graph

°F

Kamloops temperature yesterday

Maximum temperature yesterday: 84 °F (at 6:00 PM)
Minimum temperature yesterday: 59 °F (at 5:00 AM)
Average temperature yesterday: 70 °F

Past Weeks' High & Low Weather Summary

 TemperatureHumidityPressure
High99 °F (Jul 19, 4:00 PM)94% (Jul 26, 6:00 AM)30.22 "Hg (Jul 26, 6:00 AM)
Low52 °F (Jul 27, 6:00 AM)18% (Jul 20, 4:00 PM)29.65 "Hg (Jul 20, 4:00 PM)
Average70 °F48%29.93 "Hg
* Reported Jul 14 2:00 PM — Jul 29 2:00 PM, Kamloops, Weather by CustomWeather, © 2015

Note: Actual official high and low records may vary slightly from our data, if they occured in-between our weather recording intervals... More about our weather records

Advertising

Kamloops weather history for previous 24 hours

 ConditionsComfort  
Time TempWeatherWind HumidityBarometerVisibility
2:00 PM
Wed, Jul 29
84 °FScattered clouds.9 mph22%30.09 "Hg40 mi
1:00 PM82 °FPassing clouds.8 mph23%30.11 "Hg40 mi
12:00 PM79 °FPassing clouds.6 mph30%30.13 "Hg40 mi
11:00 AM75 °FPassing clouds.6 mph44%30.16 "Hg40 mi
10:00 AM70 °FPassing clouds.5 mph53%30.17 "Hg40 mi
9:00 AM68 °FScattered clouds.3 mph56%30.19 "Hg40 mi
8:00 AM64 °FBroken clouds.3 mph64%30.18 "Hg40 mi
7:00 AM63 °FBroken clouds.3 mph68%30.18 "Hg40 mi
6:00 AM59 °FPassing clouds.3 mph77%30.16 "Hg40 mi
5:00 AM59 °FPartly cloudy.2 mph72%30.15 "Hg40 mi
4:00 AM61 °FPassing clouds.No wind68%30.14 "Hg40 mi
3:00 AM63 °FPassing clouds.5 mph64%30.13 "Hg40 mi
2:00 AM63 °FPassing clouds.7 mph68%30.13 "Hg40 mi
1:00 AM66 °FPassing clouds.6 mph60%30.13 "Hg40 mi
12:00 AM68 °FPassing clouds.6 mph56%30.11 "Hg40 mi
11:00 PM
Tue, Jul 28
68 °FPassing clouds.6 mph53%30.11 "Hg40 mi
10:00 PM72 °FPassing clouds.13 mph44%30.11 "Hg40 mi
9:00 PM73 °FScattered clouds.8 mph41%30.09 "Hg40 mi
8:00 PM77 °FScattered clouds.8 mph36%30.06 "Hg40 mi
7:00 PM81 °FScattered clouds.7 mph28%30.05 "Hg40 mi
6:00 PM84 °FScattered clouds.6 mph23%30.05 "Hg40 mi
5:00 PM81 °FScattered clouds.6 mph24%30.06 "Hg40 mi
4:00 PM82 °FBroken clouds.7 mph26%30.08 "Hg40 mi
Weather by CustomWeather, © 2015

See weather overviewHow to use our weather pages